Time,TemperatureF,DewpointF,PressureIn,WindDirection,WindDirectionDegrees,WindSpeedMPH,WindSpeedGustMPH,Humidity,HourlyPrecipIn,Conditions,Clouds,dailyrainin,SoftwareType,DateUTC
2013-05-28 00:01:00,60.0,43.0,28.03,WSW,247,0.0,0.0,53,0.00,,,0.00,Rainwise IP-100,2013-05-28 04:01:00,
2013-05-28 00:06:00,59.0,40.0,28.03,WSW,247,0.0,0.0,49,0.00,,,0.00,Rainwise IP-100,2013-05-28 04:06:00,
2013-05-28 00:11:00,59.0,39.0,28.04,WSW,247,0.0,0.0,48,0.00,,,0.00,Rainwise IP-100,2013-05-28 04:11:00,
2013-05-28 00:16:00,59.0,36.0,28.04,WSW,247,0.0,0.0,41,0.00,,,0.00,Rainwise IP-100,2013-05-28 04:16:00,
2013-05-28 00:21:00,59.0,35.0,28.04,WSW,247,0.0,0.0,39,0.00,,,0.00,Rainwise IP-100,2013-05-28 04:21:00,
2013-05-28 00:26:00,58.0,31.0,28.04,WSW,247,0.0,0.0,35,0.00,,,0.00,Rainwise IP-100,2013-05-28 04:26:00,
2013-05-28 00:31:00,58.0,33.0,28.04,WSW,247,0.0,0.0,39,0.00,,,0.00,Rainwise IP-100,2013-05-28 04:31:00,
2013-05-28 00:36:00,58.0,14.0,28.04,WSW,247,0.0,0.0,17,0.00,,,0.00,Rainwise IP-100,2013-05-28 04:36:00,
2013-05-28 00:41:00,58.0,21.0,28.03,WSW,247,0.0,0.0,22,0.00,,,0.00,Rainwise IP-100,2013-05-28 04:41:00,
2013-05-28 00:46:00,58.0,11.0,28.03,WSW,247,0.0,0.0,15,0.00,,,0.00,Rainwise IP-100,2013-05-28 04:46:00,
2013-05-28 00:51:00,58.0,16.0,28.03,WSW,247,0.0,0.0,19,0.00,,,0.00,Rainwise IP-100,2013-05-28 04:51:00,
2013-05-28 00:56:00,57.0,4.0,28.03,WSW,247,0.0,0.0,10,0.00,,,0.00,Rainwise IP-100,2013-05-28 04:56:00,
2013-05-28 01:01:00,57.0,16.0,28.03,WSW,247,0.0,0.0,19,0.00,,,0.00,Rainwise IP-100,2013-05-28 05:01:00,
2013-05-28 01:06:00,57.0,-6.0,28.03,WSW,247,0.0,0.0,6,0.00,,,0.00,Rainwise IP-100,2013-05-28 05:06:00,
2013-05-28 01:11:00,57.0,8.0,28.03,WSW,247,0.0,0.0,12,0.00,,,0.00,Rainwise IP-100,2013-05-28 05:11:00,
2013-05-28 01:16:00,57.0,-13.0,28.03,WSW,247,0.0,0.0,5,0.00,,,0.00,Rainwise IP-100,2013-05-28 05:16:00,
2013-05-28 01:21:00,57.0,-6.0,28.03,WSW,247,0.0,0.0,6,0.00,,,0.00,Rainwise IP-100,2013-05-28 05:21:00,
2013-05-28 01:26:00,56.0,-23.0,28.03,WSW,247,0.0,0.0,2,0.00,,,0.00,Rainwise IP-100,2013-05-28 05:26:00,
2013-05-28 01:31:00,56.0,-6.0,28.04,WSW,247,0.0,0.0,7,0.00,,,0.00,Rainwise IP-100,2013-05-28 05:31:00,
2013-05-28 01:32:00,56.0,-40.0,28.04,WSW,247,0.0,0.0,0,0.00,,,0.00,Rainwise IP-100,2013-05-28 05:32:00,
2013-05-28 01:37:00,56.0,-40.0,28.04,WSW,247,0.0,0.0,0,0.00,,,0.00,Rainwise IP-100,2013-05-28 05:37:00,
2013-05-28 01:42:00,56.0,-40.0,28.04,WSW,247,0.0,0.0,0,0.00,,,0.00,Rainwise IP-100,2013-05-28 05:42:00,
2013-05-28 01:47:00,56.0,-40.0,28.04,WSW,247,0.0,0.0,0,0.00,,,0.00,Rainwise IP-100,2013-05-28 05:47:00,
2013-05-28 01:52:00,56.0,-40.0,28.03,WSW,247,0.0,0.0,0,0.00,,,0.00,Rainwise IP-100,2013-05-28 05:52:00,
2013-05-28 01:57:00,55.0,-40.0,28.03,WSW,247,0.0,0.0,0,0.00,,,0.00,Rainwise IP-100,2013-05-28 05:57:00,
2013-05-28 02:02:00,55.0,-40.0,28.03,WSW,247,0.0,0.0,0,0.00,,,0.00,Rainwise IP-100,2013-05-28 06:02:00,
2013-05-28 02:07:00,55.0,-40.0,28.03,WSW,247,0.0,0.0,0,0.00,,,0.00,Rainwise IP-100,2013-05-28 06:07:00,
2013-05-28 02:12:00,55.0,-40.0,28.03,WSW,247,0.0,0.0,0,0.00,,,0.00,Rainwise IP-100,2013-05-28 06:12:00,
2013-05-28 02:17:00,55.0,-40.0,28.03,WSW,247,0.0,0.0,0,0.00,,,0.00,Rainwise IP-100,2013-05-28 06:17:00,
2013-05-28 02:22:00,55.0,-40.0,28.03,WSW,247,0.0,0.0,0,0.00,,,0.00,Rainwise IP-100,2013-05-28 06:22:00,
2013-05-28 02:27:00,55.0,-40.0,28.03,WSW,247,0.0,0.0,0,0.00,,,0.00,Rainwise IP-100,2013-05-28 06:27:00,
2013-05-28 02:32:00,55.0,-40.0,28.02,WSW,247,0.0,0.0,0,0.00,,,0.00,Rainwise IP-100,2013-05-28 06:32:00,
2013-05-28 02:37:00,55.0,-40.0,28.02,WSW,247,0.0,0.0,0,0.00,,,0.00,Rainwise IP-100,2013-05-28 06:37:00,
2013-05-28 02:42:00,54.0,-40.0,28.02,WSW,247,0.0,0.0,0,0.00,,,0.00,Rainwise IP-100,2013-05-28 06:42:00,
2013-05-28 02:47:00,55.0,-40.0,28.02,WSW,247,0.0,0.0,0,0.00,,,0.00,Rainwise IP-100,2013-05-28 06:47:00,
2013-05-28 02:52:00,55.0,-40.0,28.01,WSW,247,0.0,0.0,0,0.00,,,0.00,Rainwise IP-100,2013-05-28 06:52:00,
2013-05-28 02:57:00,54.0,-40.0,28.01,WSW,247,0.0,0.0,0,0.00,,,0.00,Rainwise IP-100,2013-05-28 06:57:00,
2013-05-28 03:02:00,54.0,-40.0,28.00,WSW,247,0.0,0.0,0,0.00,,,0.00,Rainwise IP-100,2013-05-28 07:02:00,
2013-05-28 03:07:00,54.0,-40.0,28.00,WSW,247,0.0,0.0,0,0.00,,,0.00,Rainwise IP-100,2013-05-28 07:07:00,
2013-05-28 03:12:00,54.0,-40.0,28.00,WSW,247,0.0,0.0,0,0.00,,,0.00,Rainwise IP-100,2013-05-28 07:12:00,
2013-05-28 03:17:00,54.0,-40.0,28.00,WSW,247,0.0,0.0,0,0.00,,,0.00,Rainwise IP-100,2013-05-28 07:17:00,
2013-05-28 03:22:00,54.0,-40.0,28.02,WSW,247,0.0,0.0,0,0.00,,,0.00,Rainwise IP-100,2013-05-28 07:22:00,
2013-05-28 03:27:00,54.0,-40.0,28.02,WSW,247,0.0,0.0,0,0.00,,,0.00,Rainwise IP-100,2013-05-28 07:27:00,
2013-05-28 03:32:00,54.0,-40.0,28.02,WSW,247,0.0,0.0,0,0.00,,,0.00,Rainwise IP-100,2013-05-28 07:32:00,
2013-05-28 03:37:00,54.0,-40.0,28.02,WSW,247,0.0,0.0,0,0.00,,,0.00,Rainwise IP-100,2013-05-28 07:37:00,
2013-05-28 03:42:00,54.0,-40.0,28.02,WSW,247,0.0,0.0,0,0.00,,,0.00,Rainwise IP-100,2013-05-28 07:42:00,
2013-05-28 03:47:00,54.0,-40.0,28.02,WSW,247,0.0,0.0,0,0.00,,,0.00,Rainwise IP-100,2013-05-28 07:47:00,
2013-05-28 03:52:00,54.0,-40.0,28.02,WSW,247,0.0,0.0,0,0.00,,,0.00,Rainwise IP-100,2013-05-28 07:52:00,
2013-05-28 03:57:00,54.0,-40.0,28.02,WSW,247,0.0,0.0,0,0.00,,,0.00,Rainwise IP-100,2013-05-28 07:57:00,
2013-05-28 04:02:00,54.0,-40.0,28.02,WSW,247,0.0,0.0,0,0.00,,,0.00,Rainwise IP-100,2013-05-28 08:02:00,
2013-05-28 04:07:00,54.0,-40.0,28.02,WSW,247,0.0,0.0,0,0.00,,,0.00,Rainwise IP-100,2013-05-28 08:07:00,
2013-05-28 04:12:00,53.0,-40.0,28.02,WSW,247,0.0,0.0,0,0.00,,,0.00,Rainwise IP-100,2013-05-28 08:12:00,
2013-05-28 04:17:00,53.0,-40.0,28.02,WSW,247,0.0,0.0,0,0.00,,,0.00,Rainwise IP-100,2013-05-28 08:17:00,
2013-05-28 04:22:00,53.0,-40.0,28.02,WSW,247,0.0,0.0,0,0.00,,,0.00,Rainwise IP-100,2013-05-28 08:22:00,
2013-05-28 04:27:00,53.0,-40.0,28.02,WSW,247,0.0,0.0,0,0.00,,,0.00,Rainwise IP-100,2013-05-28 08:27:00,
2013-05-28 04:32:00,53.0,-40.0,28.02,WSW,247,0.0,0.0,0,0.00,,,0.00,Rainwise IP-100,2013-05-28 08:32:00,
2013-05-28 04:37:00,53.0,-40.0,28.02,WSW,247,0.0,0.0,0,0.00,,,0.00,Rainwise IP-100,2013-05-28 08:37:00,
2013-05-28 04:42:00,53.0,-40.0,28.01,WSW,247,0.0,0.0,0,0.00,,,0.00,Rainwise IP-100,2013-05-28 08:42:00,
2013-05-28 04:47:00,53.0,-40.0,28.01,WSW,247,0.0,0.0,0,0.00,,,0.00,Rainwise IP-100,2013-05-28 08:47:00,
2013-05-28 04:52:00,53.0,-40.0,28.02,WSW,247,0.0,0.0,0,0.00,,,0.00,Rainwise IP-100,2013-05-28 08:52:00,
2013-05-28 04:57:00,53.0,-40.0,28.02,WSW,247,0.0,0.0,0,0.00,,,0.00,Rainwise IP-100,2013-05-28 08:57:00,
2013-05-28 05:02:00,53.0,-40.0,28.02,WSW,247,0.0,0.0,0,0.00,,,0.00,Rainwise IP-100,2013-05-28 09:02:00,
2013-05-28 05:07:00,53.0,-40.0,28.02,WSW,247,0.0,0.0,0,0.00,,,0.00,Rainwise IP-100,2013-05-28 09:07:00,
2013-05-28 05:12:00,53.0,-40.0,28.01,WSW,247,0.0,0.0,0,0.00,,,0.00,Rainwise IP-100,2013-05-28 09:12:00,
2013-05-28 05:17:00,53.0,-40.0,28.01,WSW,247,0.0,0.0,0,0.00,,,0.00,Rainwise IP-100,2013-05-28 09:17:00,
2013-05-28 05:22:00,53.0,-40.0,28.01,WSW,247,0.0,0.0,0,0.00,,,0.00,Rainwise IP-100,2013-05-28 09:22:00,
2013-05-28 05:27:00,53.0,-40.0,28.01,WSW,247,0.0,0.0,0,0.00,,,0.00,Rainwise IP-100,2013-05-28 09:27:00,
2013-05-28 05:32:00,54.0,-40.0,28.02,WSW,247,0.0,0.0,0,0.00,,,0.00,Rainwise IP-100,2013-05-28 09:32:00,
2013-05-28 05:37:00,54.0,-40.0,28.02,WSW,247,0.0,0.0,0,0.00,,,0.00,Rainwise IP-100,2013-05-28 09:37:00,
2013-05-28 05:42:00,54.0,-40.0,28.02,WSW,247,0.0,0.0,0,0.00,,,0.00,Rainwise IP-100,2013-05-28 09:42:00,
2013-05-28 05:47:00,55.0,-40.0,28.02,WSW,247,0.0,0.0,0,0.00,,,0.00,Rainwise IP-100,2013-05-28 09:47:00,
2013-05-28 05:52:00,55.0,-40.0,28.02,WSW,247,0.0,0.0,0,0.00,,,0.00,Rainwise IP-100,2013-05-28 09:52:00,
2013-05-28 05:57:00,55.0,-40.0,28.02,WSW,247,0.0,0.0,0,0.00,,,0.00,Rainwise IP-100,2013-05-28 09:57:00,
2013-05-28 06:02:00,55.0,-40.0,28.02,WSW,247,0.0,0.0,0,0.00,,,0.00,Rainwise IP-100,2013-05-28 10:02:00,
2013-05-28 06:07:00,55.0,-40.0,28.02,WSW,247,0.0,0.0,0,0.00,,,0.00,Rainwise IP-100,2013-05-28 10:07:00,
2013-05-28 06:12:00,55.0,-40.0,28.03,WSW,247,0.0,0.0,0,0.00,,,0.00,Rainwise IP-100,2013-05-28 10:12:00,
2013-05-28 06:17:00,55.0,-40.0,28.03,WSW,247,0.0,0.0,0,0.00,,,0.00,Rainwise IP-100,2013-05-28 10:17:00,
2013-05-28 06:22:00,56.0,-40.0,28.03,WSW,247,0.0,0.0,0,0.00,,,0.00,Rainwise IP-100,2013-05-28 10:22:00,
2013-05-28 06:27:00,56.0,-40.0,28.03,WSW,247,0.0,0.0,0,0.00,,,0.00,Rainwise IP-100,2013-05-28 10:27:00,
2013-05-28 06:31:00,56.0,-40.0,28.04,WSW,247,0.0,0.0,0,0.00,,,0.00,Rainwise IP-100,2013-05-28 10:31:00,
2013-05-28 06:36:00,56.0,-40.0,28.04,WSW,247,0.0,0.0,0,0.00,,,0.00,Rainwise IP-100,2013-05-28 10:36:00,
2013-05-28 06:41:00,56.0,-40.0,28.04,WSW,247,0.0,0.0,0,0.00,,,0.00,Rainwise IP-100,2013-05-28 10:41:00,
2013-05-28 06:46:00,56.0,-40.0,28.04,WSW,247,0.0,0.0,0,0.00,,,0.00,Rainwise IP-100,2013-05-28 10:46:00,
2013-05-28 06:51:00,56.0,-40.0,28.04,WSW,247,0.0,0.0,0,0.00,,,0.00,Rainwise IP-100,2013-05-28 10:51:00,
2013-05-28 06:56:00,56.0,-40.0,28.04,WSW,247,0.0,0.0,0,0.00,,,0.00,Rainwise IP-100,2013-05-28 10:56:00,
2013-05-28 07:01:00,56.0,-40.0,28.04,WSW,247,0.0,0.0,0,0.00,,,0.00,Rainwise IP-100,2013-05-28 11:01:00,
2013-05-28 07:06:00,56.0,-40.0,28.04,WSW,247,0.0,0.0,0,0.00,,,0.00,Rainwise IP-100,2013-05-28 11:06:00,
2013-05-28 07:11:00,57.0,-40.0,28.04,WSW,247,0.0,0.0,0,0.00,,,0.00,Rainwise IP-100,2013-05-28 11:11:00,
2013-05-28 07:16:00,57.0,-40.0,28.04,WSW,247,0.0,0.0,0,0.00,,,0.00,Rainwise IP-100,2013-05-28 11:16:00,
2013-05-28 07:21:00,58.0,-40.0,28.04,WSW,247,0.0,0.0,0,0.00,,,0.00,Rainwise IP-100,2013-05-28 11:21:00,
2013-05-28 07:26:00,58.0,-40.0,28.04,WSW,247,0.0,0.0,0,0.00,,,0.00,Rainwise IP-100,2013-05-28 11:26:00,
2013-05-28 07:31:00,59.0,-23.0,28.04,WSW,247,0.0,0.0,0,0.00,,,0.00,Rainwise IP-100,2013-05-28 11:31:00,
2013-05-28 07:36:00,59.0,-23.0,28.04,WSW,247,0.0,0.0,0,0.00,,,0.00,Rainwise IP-100,2013-05-28 11:36:00,
2013-05-28 07:41:00,59.0,-23.0,28.04,WSW,247,0.0,0.0,0,0.00,,,0.00,Rainwise IP-100,2013-05-28 11:41:00,
2013-05-28 07:46:00,59.0,-23.0,28.04,WSW,247,0.0,0.0,0,0.00,,,0.00,Rainwise IP-100,2013-05-28 11:46:00,
2013-05-28 07:51:00,60.0,-23.0,28.04,WSW,247,0.0,0.0,0,0.00,,,0.00,Rainwise IP-100,2013-05-28 11:51:00,
2013-05-28 07:56:00,60.0,-23.0,28.04,WSW,247,0.0,0.0,0,0.00,,,0.00,Rainwise IP-100,2013-05-28 11:56:00,
2013-05-28 08:01:00,60.0,-23.0,28.04,WSW,247,0.0,0.0,0,0.00,,,0.00,Rainwise IP-100,2013-05-28 12:01:00,
2013-05-28 08:06:00,61.0,-23.0,28.04,WSW,247,0.0,0.0,0,0.00,,,0.00,Rainwise IP-100,2013-05-28 12:06:00,
2013-05-28 08:11:00,61.0,-23.0,28.04,WSW,247,0.0,0.0,0,0.00,,,0.00,Rainwise IP-100,2013-05-28 12:11:00,
2013-05-28 08:16:00,61.0,-23.0,28.04,WSW,247,0.0,0.0,0,0.00,,,0.00,Rainwise IP-100,2013-05-28 12:16:00,
2013-05-28 08:21:00,61.0,-23.0,28.04,WSW,247,0.0,0.0,0,0.00,,,0.00,Rainwise IP-100,2013-05-28 12:21:00,
2013-05-28 08:26:00,62.0,-23.0,28.04,WSW,247,0.0,0.0,0,0.00,,,0.00,Rainwise IP-100,2013-05-28 12:26:00,
2013-05-28 08:31:00,62.0,-23.0,28.04,WSW,247,0.0,0.0,0,0.00,,,0.00,Rainwise IP-100,2013-05-28 12:31:00,
2013-05-28 08:36:00,63.0,-23.0,28.04,WSW,247,0.0,0.0,0,0.00,,,0.00,Rainwise IP-100,2013-05-28 12:36:00,
2013-05-28 08:41:00,64.0,-23.0,28.03,WSW,247,0.0,0.0,0,0.00,,,0.00,Rainwise IP-100,2013-05-28 12:41:00,
2013-05-28 08:46:00,64.0,-23.0,28.03,WSW,247,0.0,0.0,0,0.00,,,0.00,Rainwise IP-100,2013-05-28 12:46:00,
2013-05-28 08:51:00,65.0,-23.0,28.04,WSW,247,0.0,0.0,0,0.00,,,0.00,Rainwise IP-100,2013-05-28 12:51:00,
2013-05-28 08:56:00,66.0,-23.0,28.04,SSE,157,0.0,2.0,0,0.00,,,0.00,Rainwise IP-100,2013-05-28 12:56:00,
2013-05-28 09:01:00,67.0,33.0,28.03,SSW,202,0.0,3.0,29,0.00,,,0.00,Rainwise IP-100,2013-05-28 13:01:00,
2013-05-28 09:06:00,68.0,47.5,28.03,SSW,202,0.0,2.0,48,0.00,,,0.00,Rainwise IP-100,2013-05-28 13:06:00,
2013-05-28 09:11:00,69.0,66.3,28.03,SSW,202,0.0,0.0,92,0.00,,,0.00,Rainwise IP-100,2013-05-28 13:11:00,
2013-05-28 09:16:00,70.0,69.3,28.03,SSW,202,0.0,0.0,97,0.00,,,0.00,Rainwise IP-100,2013-05-28 13:16:00,
2013-05-28 09:21:00,72.0,70.0,28.02,SSW,202,0.0,0.0,94,0.00,,,0.00,Rainwise IP-100,2013-05-28 13:21:00,
2013-05-28 09:26:00,74.0,71.3,28.02,South,180,0.0,4.0,90,0.00,,,0.00,Rainwise IP-100,2013-05-28 13:26:00,
2013-05-28 09:31:00,75.0,69.0,28.02,SSE,157,0.0,0.0,81,0.00,,,0.00,Rainwise IP-100,2013-05-28 13:31:00,
2013-05-28 09:36:00,76.0,69.3,28.02,SSE,157,0.0,0.0,80,0.00,,,0.00,Rainwise IP-100,2013-05-28 13:36:00,
2013-05-28 09:41:00,76.0,69.3,28.02,SSW,202,0.0,2.0,80,0.00,,,0.00,Rainwise IP-100,2013-05-28 13:41:00,
2013-05-28 09:46:00,77.0,69.3,28.02,NW,315,0.0,2.0,77,0.00,,,0.00,Rainwise IP-100,2013-05-28 13:46:00,
2013-05-28 09:51:00,77.0,67.5,28.02,SE,135,0.0,0.0,72,0.00,,,0.00,Rainwise IP-100,2013-05-28 13:51:00,
2013-05-28 09:56:00,77.0,67.5,28.02,West,270,0.0,3.0,72,0.00,,,0.00,Rainwise IP-100,2013-05-28 13:56:00,
2013-05-28 10:01:00,77.0,68.5,28.02,West,270,0.0,0.0,74,0.00,,,0.00,Rainwise IP-100,2013-05-28 14:01:00,
2013-05-28 10:06:00,77.0,67.0,28.02,SW,225,0.0,3.0,71,0.00,,,0.00,Rainwise IP-100,2013-05-28 14:06:00,
2013-05-28 10:11:00,79.0,68.0,28.01,SE,135,1.0,3.0,69,0.00,,,0.00,Rainwise IP-100,2013-05-28 14:11:00,
2013-05-28 10:16:00,78.0,66.3,28.01,South,180,2.0,4.0,67,0.00,,,0.00,Rainwise IP-100,2013-05-28 14:16:00,
2013-05-28 10:21:00,77.0,66.0,28.03,West,270,0.0,3.0,68,0.00,,,0.00,Rainwise IP-100,2013-05-28 14:21:00,
2013-05-28 10:26:00,76.0,65.5,28.03,West,270,0.0,3.0,70,0.00,,,0.00,Rainwise IP-100,2013-05-28 14:26:00,
2013-05-28 10:31:00,76.0,66.3,28.04,West,270,0.0,3.0,72,0.00,,,0.00,Rainwise IP-100,2013-05-28 14:31:00,
2013-05-28 10:36:00,76.0,66.3,28.04,SW,225,0.0,3.0,72,0.00,,,0.00,Rainwise IP-100,2013-05-28 14:36:00,
2013-05-28 10:41:00,77.0,70.0,28.03,SSW,202,0.0,4.0,79,0.00,,,0.00,Rainwise IP-100,2013-05-28 14:41:00,
2013-05-28 10:46:00,79.0,67.5,28.03,SSE,157,2.0,0.0,68,0.00,,,0.00,Rainwise IP-100,2013-05-28 14:46:00,
2013-05-28 10:51:00,78.0,65.5,28.03,SSW,202,5.0,5.0,65,0.00,,,0.00,Rainwise IP-100,2013-05-28 14:51:00,
2013-05-28 10:56:00,77.0,66.3,28.03,South,180,0.0,7.0,69,0.00,,,0.00,Rainwise IP-100,2013-05-28 14:56:00,
2013-05-28 11:01:00,78.0,65.0,28.02,South,180,0.0,1.0,64,0.00,,,0.00,Rainwise IP-100,2013-05-28 15:01:00,
2013-05-28 11:06:00,80.0,66.7,28.02,South,180,0.0,1.0,64,0.00,,,0.00,Rainwise IP-100,2013-05-28 15:06:00,
2013-05-28 11:11:00,81.0,66.0,28.01,NNE,22,0.0,1.0,60,0.00,,,0.00,Rainwise IP-100,2013-05-28 15:11:00,
2013-05-28 11:16:00,79.0,63.5,28.01,South,180,3.0,4.0,59,0.00,,,0.00,Rainwise IP-100,2013-05-28 15:16:00,
2013-05-28 11:21:00,78.0,64.5,28.02,SE,135,1.0,4.0,63,0.00,,,0.00,Rainwise IP-100,2013-05-28 15:21:00,
2013-05-28 11:26:00,78.0,67.0,28.02,ESE,112,0.0,2.0,69,0.00,,,0.00,Rainwise IP-100,2013-05-28 15:26:00,
2013-05-28 11:31:00,77.0,65.0,28.02,SSW,202,3.0,5.0,66,0.00,,,0.00,Rainwise IP-100,2013-05-28 15:31:00,
2013-05-28 13:17:00,79.0,59.5,28.00,NW,315,0.0,8.0,51,0.00,,,0.00,Rainwise IP-100,2013-05-28 17:17:00,
2013-05-28 13:22:00,81.0,62.5,27.99,WNW,292,0.0,0.0,53,0.00,,,0.00,Rainwise IP-100,2013-05-28 17:22:00,
2013-05-28 13:27:00,80.0,61.5,27.99,SSE,157,3.0,8.0,53,0.00,,,0.00,Rainwise IP-100,2013-05-28 17:27:00,
2013-05-28 13:32:00,80.0,62.0,28.00,SSE,157,0.0,4.0,54,0.00,,,0.00,Rainwise IP-100,2013-05-28 17:32:00,
2013-05-28 13:37:00,80.0,63.5,28.00,SE,135,2.0,4.0,57,0.00,,,0.00,Rainwise IP-100,2013-05-28 17:37:00,
2013-05-28 13:42:00,78.0,60.5,28.00,SE,135,2.0,4.0,55,0.00,,,0.00,Rainwise IP-100,2013-05-28 17:42:00,
2013-05-28 13:47:00,77.0,61.5,28.00,East,90,3.0,5.0,59,0.00,,,0.00,Rainwise IP-100,2013-05-28 17:47:00,
2013-05-28 13:52:00,79.0,64.0,28.00,SSW,202,3.0,7.0,60,0.00,,,0.00,Rainwise IP-100,2013-05-28 17:52:00,
2013-05-28 13:57:00,79.0,63.0,28.00,SE,135,3.0,6.0,58,0.00,,,0.00,Rainwise IP-100,2013-05-28 17:57:00,
2013-05-28 14:02:00,80.0,67.0,27.99,WSW,247,0.0,5.0,65,0.00,,,0.00,Rainwise IP-100,2013-05-28 18:02:00,
2013-05-28 14:07:00,80.0,63.5,27.99,WSW,247,0.0,5.0,57,0.00,,,0.00,Rainwise IP-100,2013-05-28 18:07:00,
2013-05-28 14:12:00,79.0,62.0,27.98,SSW,202,0.0,4.0,56,0.00,,,0.00,Rainwise IP-100,2013-05-28 18:12:00,
2013-05-28 14:17:00,79.0,65.0,27.98,SE,135,6.0,6.0,62,0.00,,,0.00,Rainwise IP-100,2013-05-28 18:17:00,
2013-05-28 14:22:00,78.0,63.0,27.98,SSE,157,3.0,6.0,60,0.00,,,0.00,Rainwise IP-100,2013-05-28 18:22:00,
2013-05-28 14:27:00,78.0,62.5,27.98,SSE,157,0.0,7.0,59,0.00,,,0.00,Rainwise IP-100,2013-05-28 18:27:00,
2013-05-28 14:32:00,79.0,63.0,27.98,SSW,202,4.0,9.0,58,0.00,,,0.00,Rainwise IP-100,2013-05-28 18:32:00,
2013-05-28 14:37:00,79.0,64.0,27.98,WSW,247,0.0,4.0,60,0.00,,,0.00,Rainwise IP-100,2013-05-28 18:37:00,
2013-05-28 14:42:00,79.0,64.0,27.98,South,180,3.0,5.0,60,0.00,,,0.00,Rainwise IP-100,2013-05-28 18:42:00,
2013-05-28 14:47:00,79.0,61.5,27.98,SE,135,4.0,5.0,55,0.00,,,0.00,Rainwise IP-100,2013-05-28 18:47:00,
2013-05-28 14:52:00,79.0,62.5,27.97,South,180,2.0,5.0,57,0.00,,,0.00,Rainwise IP-100,2013-05-28 18:52:00,
2013-05-28 14:57:00,79.0,61.0,27.97,West,270,7.0,8.0,54,0.00,,,0.00,Rainwise IP-100,2013-05-28 18:57:00,
2013-05-28 15:02:00,79.0,61.5,27.98,ENE,67,0.0,8.0,55,0.00,,,0.00,Rainwise IP-100,2013-05-28 19:02:00,
2013-05-28 15:07:00,79.0,63.0,27.98,SW,225,2.0,6.0,58,0.00,,,0.00,Rainwise IP-100,2013-05-28 19:07:00,
2013-05-28 15:12:00,80.0,63.5,27.97,SE,135,3.0,10.0,57,0.00,,,0.00,Rainwise IP-100,2013-05-28 19:12:00,
2013-05-28 15:17:00,79.0,61.5,27.97,SW,225,0.0,6.0,55,0.00,,,0.00,Rainwise IP-100,2013-05-28 19:17:00,
2013-05-28 15:27:00,79.0,62.0,27.97,SSE,157,4.0,4.0,56,0.00,,,0.00,Rainwise IP-100,2013-05-28 19:27:00,
2013-05-28 15:32:00,79.0,63.0,27.97,SSE,157,0.0,6.0,58,0.00,,,0.00,Rainwise IP-100,2013-05-28 19:32:00,
2013-05-28 15:37:00,79.0,61.0,27.96,SSE,157,0.0,0.0,54,0.00,,,0.00,Rainwise IP-100,2013-05-28 19:37:00,
2013-05-28 15:42:00,80.0,63.0,27.97,East,90,0.0,5.0,56,0.00,,,0.00,Rainwise IP-100,2013-05-28 19:42:00,
2013-05-28 15:47:00,81.0,65.5,27.97,SW,225,0.0,5.0,59,0.00,,,0.00,Rainwise IP-100,2013-05-28 19:47:00,
2013-05-28 15:52:00,81.0,63.0,27.96,SSE,157,4.0,4.0,54,0.00,,,0.00,Rainwise IP-100,2013-05-28 19:52:00,
2013-05-28 15:57:00,81.0,63.0,27.96,SSE,157,4.0,5.0,54,0.00,,,0.00,Rainwise IP-100,2013-05-28 19:57:00,
2013-05-28 16:05:00,79.0,63.0,27.97,SE,135,2.0,0.0,58,0.00,,,0.00,Rainwise IP-100,2013-05-28 20:05:00,
2013-05-28 16:10:00,79.0,63.0,27.97,SW,225,4.0,9.0,58,0.00,,,0.00,Rainwise IP-100,2013-05-28 20:10:00,
2013-05-28 16:15:00,77.0,62.0,27.98,SSW,202,0.0,6.0,60,0.00,,,0.00,Rainwise IP-100,2013-05-28 20:15:00,
2013-05-28 16:20:00,77.0,62.5,27.98,South,180,0.0,6.0,61,0.00,,,0.00,Rainwise IP-100,2013-05-28 20:20:00,
2013-05-28 16:25:00,77.0,62.5,27.98,SE,135,2.0,5.0,61,0.00,,,0.00,Rainwise IP-100,2013-05-28 20:25:00,
2013-05-28 16:33:00,78.0,64.0,27.98,SSW,202,3.0,4.0,62,0.00,,,0.00,Rainwise IP-100,2013-05-28 20:33:00,
2013-05-28 16:38:00,78.0,63.5,27.98,West,270,0.0,5.0,61,0.00,,,0.00,Rainwise IP-100,2013-05-28 20:38:00,
2013-05-28 16:43:00,79.0,63.5,27.97,SW,225,0.0,5.0,59,0.00,,,0.00,Rainwise IP-100,2013-05-28 20:43:00,
2013-05-28 16:48:00,79.0,62.5,27.97,SE,135,6.0,9.0,57,0.00,,,0.00,Rainwise IP-100,2013-05-28 20:48:00,
2013-05-28 16:53:00,79.0,63.5,27.97,SE,135,0.0,9.0,59,0.00,,,0.00,Rainwise IP-100,2013-05-28 20:53:00,
2013-05-28 16:58:00,78.0,62.5,27.97,NW,315,3.0,5.0,59,0.00,,,0.00,Rainwise IP-100,2013-05-28 20:58:00,
2013-05-28 17:03:00,78.0,62.5,27.97,SSW,202,0.0,4.0,59,0.00,,,0.00,Rainwise IP-100,2013-05-28 21:03:00,
2013-05-28 17:08:00,77.0,63.0,27.98,ESE,112,0.0,5.0,62,0.00,,,0.00,Rainwise IP-100,2013-05-28 21:08:00,
2013-05-28 17:13:00,76.0,62.5,27.98,East,90,3.0,7.0,63,0.00,,,0.00,Rainwise IP-100,2013-05-28 21:13:00,
2013-05-28 17:18:00,76.0,63.5,27.98,SE,135,0.0,5.0,66,0.00,,,0.00,Rainwise IP-100,2013-05-28 21:18:00,
2013-05-28 17:23:00,76.0,63.5,27.98,SSW,202,3.0,6.0,66,0.00,,,0.00,Rainwise IP-100,2013-05-28 21:23:00,
2013-05-28 17:28:00,76.0,63.5,27.98,WSW,247,2.0,5.0,66,0.00,,,0.00,Rainwise IP-100,2013-05-28 21:28:00,
2013-05-28 17:33:00,76.0,63.5,27.98,SW,225,1.0,5.0,66,0.00,,,0.00,Rainwise IP-100,2013-05-28 21:33:00,
2013-05-28 17:38:00,75.0,61.5,27.98,SSE,157,1.0,6.0,63,0.00,,,0.00,Rainwise IP-100,2013-05-28 21:38:00,
2013-05-28 17:43:00,75.0,63.0,27.97,SSE,157,3.0,5.0,66,0.00,,,0.00,Rainwise IP-100,2013-05-28 21:43:00,
2013-05-28 17:48:00,75.0,62.5,27.97,SW,225,4.0,5.0,65,0.00,,,0.00,Rainwise IP-100,2013-05-28 21:48:00,
2013-05-28 17:53:00,75.0,62.5,27.97,SW,225,3.0,6.0,65,0.00,,,0.00,Rainwise IP-100,2013-05-28 21:53:00,
2013-05-28 17:58:00,75.0,62.5,27.97,SW,225,3.0,7.0,65,0.00,,,0.00,Rainwise IP-100,2013-05-28 21:58:00,
2013-05-28 18:03:00,75.0,63.0,27.97,SW,225,6.0,6.0,66,0.00,,,0.00,Rainwise IP-100,2013-05-28 22:03:00,
2013-05-28 18:08:00,75.0,62.5,27.97,SSE,157,4.0,6.0,65,0.00,,,0.00,Rainwise IP-100,2013-05-28 22:08:00,
2013-05-28 18:13:00,74.0,62.0,27.97,WNW,292,0.0,6.0,66,0.00,,,0.00,Rainwise IP-100,2013-05-28 22:13:00,
2013-05-28 18:18:00,74.0,63.0,27.97,SSW,202,0.0,6.0,68,0.00,,,0.00,Rainwise IP-100,2013-05-28 22:18:00,
2013-05-28 18:23:00,74.0,63.0,27.96,SW,225,0.0,5.0,68,0.00,,,0.00,Rainwise IP-100,2013-05-28 22:23:00,
2013-05-28 18:28:00,74.0,62.0,27.96,SW,225,0.0,5.0,66,0.00,,,0.00,Rainwise IP-100,2013-05-28 22:28:00,
2013-05-28 18:33:00,74.0,63.0,27.96,ESE,112,3.0,4.0,68,0.00,,,0.00,Rainwise IP-100,2013-05-28 22:33:00,
2013-05-28 18:38:00,74.0,62.0,27.96,SSE,157,3.0,7.0,66,0.00,,,0.00,Rainwise IP-100,2013-05-28 22:38:00,
2013-05-28 18:43:00,74.0,62.0,27.96,ESE,112,0.0,8.0,66,0.00,,,0.00,Rainwise IP-100,2013-05-28 22:43:00,
2013-05-28 18:48:00,74.0,62.5,27.96,SSE,157,6.0,6.0,67,0.00,,,0.00,Rainwise IP-100,2013-05-28 22:48:00,
2013-05-28 18:53:00,74.0,63.0,27.96,WNW,292,0.0,6.0,68,0.00,,,0.00,Rainwise IP-100,2013-05-28 22:53:00,
2013-05-28 18:58:00,74.0,63.0,27.96,SSW,202,2.0,4.0,68,0.00,,,0.00,Rainwise IP-100,2013-05-28 22:58:00,
2013-05-28 19:03:00,74.0,63.0,27.96,SSE,157,1.0,5.0,68,0.00,,,0.00,Rainwise IP-100,2013-05-28 23:03:00,
2013-05-28 19:08:00,74.0,63.0,27.96,SE,135,1.0,5.0,68,0.00,,,0.00,Rainwise IP-100,2013-05-28 23:08:00,
2013-05-28 19:13:00,73.0,62.5,27.96,SSW,202,1.0,4.0,69,0.00,,,0.00,Rainwise IP-100,2013-05-28 23:13:00,
2013-05-28 19:18:00,73.0,62.5,27.96,SSE,157,0.0,6.0,70,0.00,,,0.00,Rainwise IP-100,2013-05-28 23:18:00,
2013-05-28 19:23:00,73.0,63.0,27.97,SSW,202,0.0,7.0,71,0.00,,,0.00,Rainwise IP-100,2013-05-28 23:23:00,
2013-05-28 19:28:00,73.0,63.0,27.97,South,180,3.0,6.0,71,0.00,,,0.00,Rainwise IP-100,2013-05-28 23:28:00,
2013-05-28 19:33:00,73.0,63.5,27.97,ESE,112,3.0,5.0,72,0.00,,,0.00,Rainwise IP-100,2013-05-28 23:33:00,
2013-05-28 19:38:00,73.0,63.0,27.97,SSE,157,4.0,6.0,71,0.00,,,0.00,Rainwise IP-100,2013-05-28 23:38:00,
2013-05-28 19:43:00,73.0,64.0,27.97,SE,135,0.0,5.0,73,0.00,,,0.00,Rainwise IP-100,2013-05-28 23:43:00,
2013-05-28 19:48:00,72.0,63.0,27.97,WSW,247,0.0,3.0,73,0.00,,,0.00,Rainwise IP-100,2013-05-28 23:48:00,
2013-05-28 19:53:00,72.0,63.0,27.97,SSW,202,0.0,1.0,74,0.00,,,0.00,Rainwise IP-100,2013-05-28 23:53:00,
2013-05-28 19:58:00,72.0,63.5,27.97,SSE,157,0.0,0.0,75,0.00,,,0.00,Rainwise IP-100,2013-05-28 23:58:00,
2013-05-28 20:03:00,72.0,65.0,27.98,SE,135,1.0,6.0,79,0.00,,,0.00,Rainwise IP-100,2013-05-29 00:03:00,
2013-05-28 20:08:00,72.0,65.5,27.98,SSE,157,0.0,4.0,80,0.00,,,0.00,Rainwise IP-100,2013-05-29 00:08:00,
2013-05-28 20:13:00,71.0,65.0,27.98,SSE,157,1.0,3.0,82,0.00,,,0.00,Rainwise IP-100,2013-05-29 00:13:00,
2013-05-28 20:18:00,71.0,65.5,27.98,SW,225,0.0,4.0,83,0.00,,,0.00,Rainwise IP-100,2013-05-29 00:18:00,
2013-05-28 20:23:00,71.0,66.0,27.98,SW,225,0.0,3.0,84,0.00,,,0.00,Rainwise IP-100,2013-05-29 00:23:00,
2013-05-28 20:28:00,71.0,66.3,27.98,South,180,0.0,0.0,85,0.00,,,0.00,Rainwise IP-100,2013-05-29 00:28:00,
2013-05-28 20:33:00,70.0,66.0,27.99,South,180,0.0,0.0,87,0.00,,,0.00,Rainwise IP-100,2013-05-29 00:33:00,
2013-05-28 20:38:00,70.0,67.0,27.99,SSW,202,0.0,3.0,90,0.00,,,0.00,Rainwise IP-100,2013-05-29 00:38:00,
2013-05-28 20:43:00,69.0,66.3,27.99,SSW,202,2.0,2.0,91,0.00,,,0.00,Rainwise IP-100,2013-05-29 00:43:00,
2013-05-28 20:48:00,69.0,66.3,27.99,SSW,202,0.0,3.0,91,0.00,,,0.00,Rainwise IP-100,2013-05-29 00:48:00,
2013-05-28 20:53:00,69.0,66.3,27.99,ESE,112,0.0,4.0,92,0.00,,,0.00,Rainwise IP-100,2013-05-29 00:53:00,
2013-05-28 20:58:00,69.0,66.3,27.99,ESE,112,0.0,0.0,92,0.00,,,0.00,Rainwise IP-100,2013-05-29 00:58:00,
2013-05-28 21:03:00,69.0,66.7,27.99,West,270,3.0,4.0,93,0.00,,,0.00,Rainwise IP-100,2013-05-29 01:03:00,
2013-05-28 21:08:00,69.0,66.7,27.99,SW,225,0.0,3.0,93,0.00,,,0.00,Rainwise IP-100,2013-05-29 01:08:00,
2013-05-28 21:13:00,69.0,67.0,27.99,SW,225,0.0,1.0,95,0.00,,,0.00,Rainwise IP-100,2013-05-29 01:13:00,
2013-05-28 21:18:00,68.0,66.7,27.99,SW,225,0.0,0.0,95,0.00,,,0.00,Rainwise IP-100,2013-05-29 01:18:00,
2013-05-28 21:23:00,68.0,67.5,28.00,SSW,202,0.0,1.0,98,0.00,,,0.00,Rainwise IP-100,2013-05-29 01:23:00,
2013-05-28 21:28:00,68.0,67.5,28.00,SSW,202,0.0,0.0,98,0.00,,,0.00,Rainwise IP-100,2013-05-29 01:28:00,
2013-05-28 21:33:00,67.0,66.7,28.00,SSW,202,0.0,0.0,98,0.00,,,0.00,Rainwise IP-100,2013-05-29 01:33:00,
2013-05-28 21:38:00,67.0,66.7,28.00,SSW,202,0.0,0.0,98,0.00,,,0.00,Rainwise IP-100,2013-05-29 01:38:00,
2013-05-28 21:43:00,66.0,65.5,28.01,SSW,202,0.0,0.0,99,0.00,,,0.00,Rainwise IP-100,2013-05-29 01:43:00,
2013-05-28 21:48:00,66.0,65.5,28.01,SSW,202,0.0,0.0,99,0.00,,,0.00,Rainwise IP-100,2013-05-29 01:48:00,
2013-05-28 21:53:00,65.0,63.5,28.00,SW,225,0.0,3.0,95,0.00,,,0.00,Rainwise IP-100,2013-05-29 01:53:00,
2013-05-28 21:58:00,65.0,64.5,28.00,SW,225,0.0,1.0,98,0.00,,,0.00,Rainwise IP-100,2013-05-29 01:58:00,
2013-05-28 22:03:00,65.0,64.0,28.00,SW,225,0.0,0.0,96,0.00,,,0.00,Rainwise IP-100,2013-05-29 02:03:00,
2013-05-28 22:08:00,65.0,63.0,28.00,SW,225,0.0,0.0,93,0.00,,,0.00,Rainwise IP-100,2013-05-29 02:08:00,
2013-05-28 22:13:00,65.0,62.0,28.01,SW,225,0.0,0.0,91,0.00,,,0.00,Rainwise IP-100,2013-05-29 02:13:00,
2013-05-28 22:18:00,65.0,63.0,28.01,SW,225,0.0,0.0,93,0.00,,,0.00,Rainwise IP-100,2013-05-29 02:18:00,
2013-05-28 22:23:00,64.0,62.0,28.01,SW,225,0.0,0.0,93,0.00,,,0.00,Rainwise IP-100,2013-05-29 02:23:00,
2013-05-28 22:28:00,64.0,60.5,28.01,SW,225,0.0,0.0,88,0.00,,,0.00,Rainwise IP-100,2013-05-29 02:28:00,
2013-05-28 22:33:00,64.0,60.5,28.02,SW,225,0.0,0.0,89,0.00,,,0.00,Rainwise IP-100,2013-05-29 02:33:00,
2013-05-28 22:38:00,64.0,57.0,28.02,SW,225,0.0,0.0,79,0.00,,,0.00,Rainwise IP-100,2013-05-29 02:38:00,
2013-05-28 22:43:00,64.0,55.0,28.01,SW,225,0.0,0.0,74,0.00,,,0.00,Rainwise IP-100,2013-05-29 02:43:00,
2013-05-28 22:48:00,64.0,57.5,28.01,SW,225,0.0,0.0,80,0.00,,,0.00,Rainwise IP-100,2013-05-29 02:48:00,
2013-05-28 22:53:00,64.0,57.0,28.02,SW,225,0.0,0.0,78,0.00,,,0.00,Rainwise IP-100,2013-05-29 02:53:00,
2013-05-28 22:58:00,64.0,56.5,28.02,SW,225,0.0,0.0,77,0.00,,,0.00,Rainwise IP-100,2013-05-29 02:58:00,
2013-05-28 23:03:00,64.0,56.5,28.02,SW,225,0.0,0.0,77,0.00,,,0.00,Rainwise IP-100,2013-05-29 03:03:00,
2013-05-28 23:08:00,63.0,54.0,28.02,SW,225,0.0,0.0,72,0.00,,,0.00,Rainwise IP-100,2013-05-29 03:08:00,
2013-05-28 23:13:00,63.0,55.0,28.02,SW,225,0.0,0.0,75,0.00,,,0.00,Rainwise IP-100,2013-05-29 03:13:00,
2013-05-28 23:18:00,63.0,49.0,28.02,SW,225,0.0,0.0,61,0.00,,,0.00,Rainwise IP-100,2013-05-29 03:18:00,
2013-05-28 23:23:00,63.0,50.5,28.03,SW,225,0.0,0.0,63,0.00,,,0.00,Rainwise IP-100,2013-05-29 03:23:00,
2013-05-28 23:28:00,63.0,46.0,28.03,SW,225,0.0,0.0,54,0.00,,,0.00,Rainwise IP-100,2013-05-29 03:28:00,
2013-05-28 23:33:00,63.0,49.0,28.03,SW,225,0.0,0.0,60,0.00,,,0.00,Rainwise IP-100,2013-05-29 03:33:00,
2013-05-28 23:38:00,63.0,48.0,28.03,SW,225,0.0,0.0,58,0.00,,,0.00,Rainwise IP-100,2013-05-29 03:38:00,
2013-05-28 23:43:00,62.0,46.0,28.02,SW,225,0.0,0.0,56,0.00,,,0.00,Rainwise IP-100,2013-05-29 03:43:00,
2013-05-28 23:48:00,62.0,45.0,28.02,SW,225,0.0,0.0,54,0.00,,,0.00,Rainwise IP-100,2013-05-29 03:48:00,
2013-05-28 23:53:00,62.0,44.0,28.03,SW,225,0.0,0.0,52,0.00,,,0.00,Rainwise IP-100,2013-05-29 03:53:00,
2013-05-28 23:58:00,62.0,39.0,28.03,SW,225,0.0,0.0,43,0.00,,,0.00,Rainwise IP-100,2013-05-29 03:58:00,